Weather in Brandon

Canada     49°50′29″N   99°57′40″W
temp.,
°C
wind,
m/s
gust,
m/s
humid.,
%
clouds,
%
prec.,
mm/h
press.,
hPa
HPBL,
m
8 may, sat
sat801:00+4e385457 0.0 1022189
04:00+2ene497599 0.0 1023213
07:00+1ene496491 0.0 1023259
10:00+6ene6744100 0.0 1022711
13:00+10ene673729 0.0 10211439
16:00+11ene663248 0.0 10201634
19:00+10ene663290 0.0 10211489
22:00+5ne4951100 0.0 1023265
9 may, sun
sun901:00+3ne5115534 0.0 1024276
04:00+1ne38620 0.0 1024181
07:000ne37670 0.0 1026207
10:00+6ene56480 0.0 1026711
13:00+9ne66360 0.0 10251435
16:00+11ne66305 0.0 10241764
19:00+10ne66355 0.0 10241644
22:00+5ene37510 0.0 1026147
10 may, mon
mon1001:00+2ne34565 0.0 102765
04:00+1ne22674 0.0 102827
07:00+1ene11715 0.0 102934
10:00+7ne11475 0.0 1028685
13:00+12ne11325 0.0 10271498
16:00+14n122855 0.0 10251857
19:00+13ene01295 0.0 10241888
22:00+9s33395 0.0 102524
11 may, tue
tue1101:00+7s334783 0.0 102640
04:00+6ssw225166 0.0 102628
07:00+6sw225347 0.0 102734
10:00+13wsw333653 0.0 1026558
13:00+16wsw33257 0.0 10252197
16:00+18wsw33235 0.0 10232663
19:00+18wsw232326 0.0 10222806
22:00+13sse223361 0.0 102312
12 may, wed
wed1201:00+10ssw36405 0.0 102480
04:00+9sw410435 0.0 1024154
07:00+9sw4115390 0.0 1024230
10:00+16sw683681 0.0 1023771
13:00+19ssw6626100 0.0 10213121
16:00+20ssw5623100 0.0 10203044
19:00+20s462688 0.0 10182198
22:00+14ssw225022 0.1 101926